date,time,SUV Intensity [MED/Hr],UV Index,Daily total [MED],Since Last [MED]
05/06/2023,00:02:36,-0.001,0.0,0.0,0.0
05/06/2023,00:03:35,0.001,0.0,0.0,0.0
05/06/2023,00:04:36,0.000,0.0,0.0,0.0
05/06/2023,00:05:36,0.000,0.0,0.0,0.0
05/06/2023,00:06:35,-0.000,0.0,0.0,0.0
05/06/2023,00:07:36,-0.001,0.0,0.0,0.0
05/06/2023,00:08:36,0.001,0.0,0.0,0.0
05/06/2023,00:09:36,0.000,0.0,0.0,0.0
05/06/2023,00:10:36,0.001,0.0,0.0,0.0
05/06/2023,00:11:36,0.000,0.0,0.0,0.0
05/06/2023,00:12:36,-0.001,0.0,0.0,0.0
05/06/2023,00:13:36,-0.001,0.0,0.0,0.0
05/06/2023,00:14:35,0.000,0.0,0.0,0.0
05/06/2023,00:15:35,0.001,0.0,0.0,0.0
05/06/2023,00:16:35,0.000,0.0,0.0,0.0
05/06/2023,00:17:35,0.001,0.0,0.0,0.0
05/06/2023,00:18:36,0.000,0.0,0.0,0.0
05/06/2023,00:19:35,0.001,0.0,0.0,0.0
05/06/2023,00:20:36,0.000,0.0,0.0,0.0
05/06/2023,00:21:36,0.000,0.0,0.0,0.0
05/06/2023,00:22:35,0.001,0.0,0.0,0.0
05/06/2023,00:23:36,0.000,0.0,0.0,0.0
05/06/2023,00:24:36,0.001,0.0,0.0,0.0
05/06/2023,00:25:36,0.000,0.0,0.0,0.0
05/06/2023,00:26:35,0.001,0.0,0.0,0.0
05/06/2023,00:27:36,0.000,0.0,0.0,0.0
05/06/2023,00:28:36,0.000,0.0,0.0,0.0
05/06/2023,00:29:36,0.001,0.0,0.0,0.0
05/06/2023,00:30:35,0.000,0.0,0.0,0.0
05/06/2023,00:31:36,0.001,0.0,0.0,0.0
05/06/2023,00:32:35,0.000,0.0,0.0,0.0
05/06/2023,00:33:36,0.000,0.0,0.0,0.0
05/06/2023,00:34:35,0.001,0.0,0.0,0.0
05/06/2023,00:35:36,0.000,0.0,0.0,0.0
05/06/2023,00:36:36,0.001,0.0,0.0,0.0
05/06/2023,00:37:35,0.001,0.0,0.0,0.0
05/06/2023,00:38:36,0.000,0.0,0.0,0.0
05/06/2023,00:39:35,0.000,0.0,0.0,0.0
05/06/2023,00:40:36,-0.001,0.0,0.0,0.0
05/06/2023,00:41:36,-0.000,0.0,0.0,0.0
05/06/2023,00:42:36,-0.001,0.0,0.0,0.0
05/06/2023,00:43:35,0.000,0.0,0.0,0.0
05/06/2023,00:44:36,0.000,0.0,0.0,0.0
05/06/2023,00:45:36,0.000,0.0,0.0,0.0
05/06/2023,00:46:36,0.001,0.0,0.0,0.0
05/06/2023,00:47:36,0.000,0.0,0.0,0.0
05/06/2023,00:48:36,0.000,0.0,0.0,0.0
05/06/2023,00:49:35,-0.001,0.0,0.0,0.0
05/06/2023,00:50:36,0.000,0.0,0.0,0.0
05/06/2023,00:51:36,0.001,0.0,0.0,0.0
05/06/2023,00:52:36,0.000,0.0,0.0,0.0
05/06/2023,00:53:35,0.000,0.0,0.0,0.0
05/06/2023,00:54:36,0.001,0.0,0.0,0.0
05/06/2023,00:55:36,0.000,0.0,0.0,0.0
05/06/2023,00:56:35,0.000,0.0,0.0,0.0
05/06/2023,00:57:36,0.000,0.0,0.0,0.0
05/06/2023,00:58:35,0.001,0.0,0.0,0.0
05/06/2023,00:59:36,0.000,0.0,0.0,0.0
05/06/2023,01:00:36,-0.000,0.0,0.0,0.0
05/06/2023,01:01:36,0.000,0.0,0.0,0.0
05/06/2023,01:02:35,0.000,0.0,0.0,0.0
05/06/2023,01:03:36,0.000,0.0,0.0,0.0
05/06/2023,01:04:36,0.000,0.0,0.0,0.0
05/06/2023,01:05:36,0.000,0.0,0.0,0.0
05/06/2023,01:06:36,0.000,0.0,0.0,0.0
05/06/2023,01:07:36,0.000,0.0,0.0,0.0
05/06/2023,01:08:36,0.000,0.0,0.0,0.0
05/06/2023,01:09:35,0.001,0.0,0.0,0.0
05/06/2023,01:10:36,0.001,0.0,0.0,0.0
05/06/2023,01:11:36,0.000,0.0,0.0,0.0
05/06/2023,01:12:35,0.000,0.0,0.0,0.0
05/06/2023,01:13:36,0.001,0.0,0.0,0.0
05/06/2023,01:14:36,-0.001,0.0,0.0,0.0
05/06/2023,01:15:36,0.000,0.0,0.0,0.0
05/06/2023,01:16:36,-0.001,0.0,0.0,0.0
05/06/2023,01:17:36,0.000,0.0,0.0,0.0
05/06/2023,01:18:36,0.001,0.0,0.0,0.0
05/06/2023,01:19:36,0.000,0.0,0.0,0.0
05/06/2023,01:20:36,-0.000,0.0,0.0,0.0
05/06/2023,01:21:36,0.000,0.0,0.0,0.0
05/06/2023,01:22:36,0.000,0.0,0.0,0.0
05/06/2023,01:23:36,0.001,0.0,0.0,0.0
05/06/2023,01:24:35,0.000,0.0,0.0,0.0
05/06/2023,01:25:36,0.000,0.0,0.0,0.0
05/06/2023,01:26:36,-0.000,0.0,0.0,0.0
05/06/2023,01:27:35,0.001,0.0,0.0,0.0
05/06/2023,01:28:36,0.000,0.0,0.0,0.0
05/06/2023,01:29:36,0.000,0.0,0.0,0.0
05/06/2023,01:30:36,0.000,0.0,0.0,0.0
05/06/2023,01:31:36,0.000,0.0,0.0,0.0
05/06/2023,01:32:36,0.000,0.0,0.0,0.0
05/06/2023,01:33:35,0.000,0.0,0.0,0.0
05/06/2023,01:34:36,0.000,0.0,0.0,0.0
05/06/2023,01:35:36,0.000,0.0,0.0,0.0
05/06/2023,01:36:36,0.000,0.0,0.0,0.0
05/06/2023,01:37:36,0.001,0.0,0.0,0.0
05/06/2023,01:38:35,0.000,0.0,0.0,0.0
05/06/2023,01:39:36,-0.000,0.0,0.0,0.0
05/06/2023,01:40:36,0.000,0.0,0.0,0.0
05/06/2023,01:41:36,0.000,0.0,0.0,0.0
05/06/2023,01:42:36,0.000,0.0,0.0,0.0
05/06/2023,01:43:35,0.001,0.0,0.0,0.0
05/06/2023,01:44:36,-0.000,0.0,0.0,0.0
05/06/2023,01:45:36,0.000,0.0,0.0,0.0
05/06/2023,01:46:35,0.000,0.0,0.0,0.0
05/06/2023,01:47:36,-0.000,0.0,0.0,0.0
05/06/2023,01:48:35,0.001,0.0,0.0,0.0
05/06/2023,01:49:36,0.000,0.0,0.0,0.0
05/06/2023,01:50:36,0.001,0.0,0.0,0.0
05/06/2023,01:51:36,0.000,0.0,0.0,0.0
05/06/2023,01:52:36,0.001,0.0,0.0,0.0
05/06/2023,01:53:35,0.000,0.0,0.0,0.0
05/06/2023,01:54:36,0.000,0.0,0.0,0.0
05/06/2023,01:55:36,-0.000,0.0,0.0,0.0
05/06/2023,01:56:35,-0.001,0.0,0.0,0.0
05/06/2023,01:57:36,0.000,0.0,0.0,0.0
05/06/2023,01:58:36,-0.000,0.0,0.0,0.0
05/06/2023,01:59:36,0.000,0.0,0.0,0.0
05/06/2023,02:00:36,0.000,0.0,0.0,0.0
05/06/2023,02:01:35,0.001,0.0,0.0,0.0
05/06/2023,02:02:36,0.000,0.0,0.0,0.0
05/06/2023,02:03:36,0.000,0.0,0.0,0.0
05/06/2023,02:04:36,0.001,0.0,0.0,0.0
05/06/2023,02:05:36,0.000,0.0,0.0,0.0
05/06/2023,02:06:37,0.000,0.0,0.0,0.0
05/06/2023,02:07:36,0.000,0.0,0.0,0.0
05/06/2023,02:08:36,-0.001,0.0,0.0,0.0
05/06/2023,02:09:35,0.000,0.0,0.0,0.0
05/06/2023,02:10:36,0.001,0.0,0.0,0.0
05/06/2023,02:11:35,0.000,0.0,0.0,0.0
05/06/2023,02:12:36,0.000,0.0,0.0,0.0
05/06/2023,02:13:36,0.000,0.0,0.0,0.0
05/06/2023,02:14:35,0.000,0.0,0.0,0.0
05/06/2023,02:15:36,0.001,0.0,0.0,0.0
05/06/2023,02:16:35,0.001,0.0,0.0,0.0
05/06/2023,02:17:36,0.000,0.0,0.0,0.0
05/06/2023,02:18:36,0.001,0.0,0.0,0.0
05/06/2023,02:19:36,0.000,0.0,0.0,0.0
05/06/2023,02:20:36,0.000,0.0,0.0,0.0
05/06/2023,02:21:36,-0.000,0.0,0.0,0.0
05/06/2023,02:22:36,0.001,0.0,0.0,0.0
05/06/2023,02:23:36,0.000,0.0,0.0,0.0
05/06/2023,02:24:35,0.001,0.0,0.0,0.0
05/06/2023,02:25:36,0.000,0.0,0.0,0.0
05/06/2023,02:26:36,-0.001,0.0,0.0,0.0
05/06/2023,02:27:36,-0.000,0.0,0.0,0.0
05/06/2023,02:28:36,-0.001,0.0,0.0,0.0
05/06/2023,02:29:36,0.000,0.0,0.0,0.0
05/06/2023,02:30:36,0.001,0.0,0.0,0.0
05/06/2023,02:31:36,0.000,0.0,0.0,0.0
05/06/2023,02:32:36,-0.001,0.0,0.0,0.0
05/06/2023,02:33:36,-0.000,0.0,0.0,0.0
05/06/2023,02:34:36,-0.001,0.0,0.0,0.0
05/06/2023,02:35:35,-0.000,0.0,0.0,0.0
05/06/2023,02:36:36,-0.000,0.0,0.0,0.0
05/06/2023,02:37:36,0.001,0.0,0.0,0.0
05/06/2023,02:38:35,0.001,0.0,0.0,0.0
05/06/2023,02:39:36,0.000,0.0,0.0,0.0
05/06/2023,02:40:36,-0.000,0.0,0.0,0.0
05/06/2023,02:41:36,-0.000,0.0,0.0,0.0
05/06/2023,02:42:36,-0.000,0.0,0.0,0.0
05/06/2023,02:43:36,-0.000,0.0,0.0,0.0
05/06/2023,02:44:36,-0.000,0.0,0.0,0.0
05/06/2023,02:45:36,-0.000,0.0,0.0,0.0
05/06/2023,02:46:36,-0.000,0.0,0.0,0.0
05/06/2023,02:47:36,-0.000,0.0,0.0,0.0
05/06/2023,02:48:36,-0.000,0.0,0.0,0.0
05/06/2023,02:49:36,-0.000,0.0,0.0,0.0
05/06/2023,02:50:36,0.000,0.0,0.0,0.0
05/06/2023,02:51:35,-0.000,0.0,0.0,0.0
05/06/2023,02:52:36,-0.000,0.0,0.0,0.0
05/06/2023,02:53:36,-0.000,0.0,0.0,0.0
05/06/2023,02:54:36,0.000,0.0,0.0,0.0
05/06/2023,02:55:36,-0.001,0.0,0.0,0.0
05/06/2023,02:56:36,-0.000,0.0,0.0,0.0
05/06/2023,02:57:36,0.001,0.0,0.0,0.0
05/06/2023,02:58:35,-0.001,0.0,0.0,0.0
05/06/2023,02:59:36,-0.000,0.0,0.0,0.0
05/06/2023,03:00:36,-0.000,0.0,0.0,0.0
05/06/2023,03:01:36,-0.001,0.0,0.0,0.0
05/06/2023,03:02:36,-0.001,0.0,0.0,0.0
05/06/2023,03:03:35,0.000,0.0,0.0,0.0
05/06/2023,03:04:36,-0.000,0.0,0.0,0.0
05/06/2023,03:05:36,-0.000,0.0,0.0,0.0
05/06/2023,03:06:36,0.001,0.0,0.0,0.0
05/06/2023,03:07:36,-0.000,0.0,0.0,0.0
05/06/2023,03:08:36,-0.001,0.0,0.0,0.0
05/06/2023,03:09:36,-0.001,0.0,0.0,0.0
05/06/2023,03:10:35,-0.000,0.0,0.0,0.0
05/06/2023,03:12:06,-0.000,0.0,0.0,0.0
05/06/2023,03:13:36,-0.001,0.0,0.0,0.0
05/06/2023,03:14:36,-0.001,0.0,0.0,0.0
05/06/2023,03:15:36,-0.000,0.0,0.0,0.0
05/06/2023,03:16:36,-0.000,0.0,0.0,0.0
05/06/2023,03:17:36,0.001,0.0,0.0,0.0
05/06/2023,03:18:36,-0.000,0.0,0.0,0.0
05/06/2023,03:19:36,0.000,0.0,0.0,0.0
05/06/2023,03:20:35,-0.000,0.0,0.0,0.0
05/06/2023,03:21:36,0.000,0.0,0.0,0.0
05/06/2023,03:22:36,-0.001,0.0,0.0,0.0
05/06/2023,03:23:35,-0.000,0.0,0.0,0.0
05/06/2023,03:24:36,-0.000,0.0,0.0,0.0
05/06/2023,03:25:36,-0.001,0.0,0.0,0.0
05/06/2023,03:26:36,-0.000,0.0,0.0,0.0
05/06/2023,03:27:36,-0.001,0.0,0.0,0.0
05/06/2023,03:28:36,-0.000,0.0,0.0,0.0
05/06/2023,03:29:36,-0.000,0.0,0.0,0.0
05/06/2023,03:30:36,-0.001,0.0,0.0,0.0
05/06/2023,03:31:36,-0.000,0.0,0.0,0.0
05/06/2023,03:32:36,-0.000,0.0,0.0,0.0
05/06/2023,03:33:36,0.001,0.0,0.0,0.0
05/06/2023,03:34:37,-0.000,0.0,0.0,0.0
05/06/2023,03:35:37,0.000,0.0,0.0,0.0
05/06/2023,03:36:36,0.000,0.0,0.0,0.0
05/06/2023,03:37:36,0.001,0.0,0.0,0.0
05/06/2023,03:38:36,0.000,0.0,0.0,0.0
05/06/2023,03:39:35,0.000,0.0,0.0,0.0
05/06/2023,03:40:36,-0.001,0.0,0.0,0.0
05/06/2023,03:41:36,0.000,0.0,0.0,0.0
05/06/2023,03:42:36,-0.001,0.0,0.0,0.0
05/06/2023,03:43:36,0.000,0.0,0.0,0.0
05/06/2023,03:44:36,0.000,0.0,0.0,0.0
05/06/2023,03:45:36,0.001,0.0,0.0,0.0
05/06/2023,03:46:35,0.000,0.0,0.0,0.0
05/06/2023,03:47:36,0.000,0.0,0.0,0.0
05/06/2023,03:48:36,-0.000,0.0,0.0,0.0
05/06/2023,03:49:36,0.000,0.0,0.0,0.0
05/06/2023,03:50:36,0.001,0.0,0.0,0.0
05/06/2023,03:51:36,0.001,0.0,0.0,0.0
05/06/2023,03:52:36,0.001,0.0,0.0,0.0
05/06/2023,03:53:36,0.001,0.0,0.0,0.0
05/06/2023,03:54:36,0.001,0.0,0.0,0.0
05/06/2023,03:55:36,0.001,0.0,0.0,0.0
05/06/2023,03:56:36,0.001,0.0,0.0,0.0
05/06/2023,03:57:36,0.001,0.0,0.0,0.0
05/06/2023,03:58:36,0.001,0.0,0.0,0.0
05/06/2023,03:59:36,0.001,0.0,0.0,0.0
05/06/2023,04:00:36,0.001,0.0,0.0,0.0
05/06/2023,04:01:36,0.001,0.0,0.0,0.0
05/06/2023,04:02:36,0.002,0.0,0.0,0.0
05/06/2023,04:03:36,0.002,0.0,0.0,0.0
05/06/2023,04:04:36,0.002,0.0,0.0,0.0
05/06/2023,04:05:36,0.002,0.0,0.0,0.0
05/06/2023,04:06:36,0.002,0.0,0.0,0.0
05/06/2023,04:07:36,0.001,0.0,0.0,0.0
05/06/2023,04:08:36,0.002,0.0,0.0,0.0
05/06/2023,04:09:36,0.002,0.0,0.0,0.0
05/06/2023,04:10:36,0.002,0.0,0.0,0.0
05/06/2023,04:11:36,0.003,0.0,0.0,0.0
05/06/2023,04:12:36,0.002,0.0,0.0,0.0
05/06/2023,04:13:36,0.002,0.0,0.0,0.0
05/06/2023,04:14:36,0.002,0.0,0.0,0.0
05/06/2023,04:15:36,0.004,0.0,0.0,0.0
05/06/2023,04:16:36,0.002,0.0,0.0,0.0
05/06/2023,04:17:36,0.002,0.0,0.0,0.0
05/06/2023,04:18:36,0.003,0.0,0.0,0.0
05/06/2023,04:19:36,0.002,0.0,0.0,0.0
05/06/2023,04:20:36,0.003,0.0,0.0,0.0
05/06/2023,04:21:36,0.004,0.0,0.0,0.0
05/06/2023,04:22:36,0.003,0.0,0.0,0.0
05/06/2023,04:23:36,0.004,0.0,0.0,0.0
05/06/2023,04:24:36,0.004,0.0,0.0,0.0
05/06/2023,04:25:36,0.004,0.0,0.0,0.0
05/06/2023,04:26:36,0.004,0.0,0.0,0.0
05/06/2023,04:27:36,0.003,0.0,0.0,0.0
05/06/2023,04:28:36,0.004,0.0,0.0,0.0
05/06/2023,04:29:36,0.005,0.0,0.0,0.0
05/06/2023,04:30:36,0.004,0.0,0.0,0.0
05/06/2023,04:31:36,0.005,0.0,0.0,0.0
05/06/2023,04:32:36,0.005,0.0,0.0,0.0
05/06/2023,04:33:36,0.005,0.0,0.0,0.0
05/06/2023,04:34:36,0.005,0.0,0.0,0.0
05/06/2023,04:35:36,0.005,0.0,0.0,0.0
05/06/2023,04:36:36,0.004,0.0,0.0,0.0
05/06/2023,04:37:36,0.005,0.0,0.0,0.0
05/06/2023,04:38:36,0.006,0.0,0.0,0.0
05/06/2023,04:39:36,0.005,0.0,0.0,0.0
05/06/2023,04:40:36,0.005,0.0,0.0,0.0
05/06/2023,04:41:36,0.007,0.0,0.0,0.0
05/06/2023,04:42:37,0.006,0.0,0.0,0.0
05/06/2023,04:43:36,0.007,0.0,0.0,0.0
05/06/2023,04:44:36,0.008,0.0,0.001,0.001
05/06/2023,04:45:36,0.008,0.0,0.001,0.0
05/06/2023,04:46:36,0.008,0.0,0.001,0.0
05/06/2023,04:47:37,0.008,0.0,0.001,0.0
05/06/2023,04:48:35,0.008,0.0,0.001,0.0
05/06/2023,04:49:36,0.009,0.0,0.001,0.0
05/06/2023,04:50:36,0.009,0.0,0.001,0.0
05/06/2023,04:51:36,0.009,0.0,0.002,0.001
05/06/2023,04:52:36,0.011,0.0,0.002,0.0
05/06/2023,04:53:36,0.011,0.0,0.002,0.0
05/06/2023,04:54:37,0.011,0.0,0.002,0.0
05/06/2023,04:55:36,0.011,0.0,0.002,0.0
05/06/2023,04:56:36,0.011,0.0,0.002,0.0
05/06/2023,04:57:36,0.011,0.0,0.003,0.001
05/06/2023,04:58:37,0.012,0.0,0.003,0.0
05/06/2023,04:59:36,0.012,0.0,0.003,0.0
05/06/2023,05:00:36,0.013,0.0,0.003,0.0
05/06/2023,05:01:36,0.012,0.0,0.003,0.0
05/06/2023,05:02:37,0.013,0.0,0.004,0.001
05/06/2023,05:03:36,0.013,0.0,0.004,0.0
05/06/2023,05:04:36,0.013,0.0,0.004,0.0
05/06/2023,05:05:36,0.015,0.0,0.004,0.0
05/06/2023,05:06:37,0.014,0.0,0.005,0.001
05/06/2023,05:07:36,0.014,0.0,0.005,0.0
05/06/2023,05:08:36,0.014,0.0,0.005,0.0
05/06/2023,05:09:36,0.014,0.0,0.005,0.0
05/06/2023,05:10:36,0.015,0.0,0.005,0.0
05/06/2023,05:11:36,0.015,0.0,0.006,0.001
05/06/2023,05:12:36,0.015,0.0,0.006,0.0
05/06/2023,05:13:37,0.015,0.0,0.006,0.0
05/06/2023,05:14:36,0.017,0.0,0.006,0.0
05/06/2023,05:15:36,0.017,0.0,0.007,0.001
05/06/2023,05:16:37,0.017,0.0,0.007,0.0
05/06/2023,05:17:36,0.017,0.0,0.007,0.0
05/06/2023,05:18:36,0.018,0.0,0.008,0.001
05/06/2023,05:19:36,0.019,0.0,0.008,0.0
05/06/2023,05:20:36,0.020,0.0,0.008,0.0
05/06/2023,05:21:36,0.020,0.0,0.009,0.001
05/06/2023,05:22:36,0.021,0.0,0.009,0.0
05/06/2023,05:23:36,0.020,0.0,0.009,0.0
05/06/2023,05:24:36,0.022,0.0,0.01,0.001
05/06/2023,05:25:36,0.022,0.0,0.01,0.0
05/06/2023,05:26:37,0.021,0.0,0.01,0.0
05/06/2023,05:27:36,0.022,0.0,0.011,0.001
05/06/2023,05:28:36,0.023,0.0,0.011,0.0
05/06/2023,05:29:37,0.024,0.0,0.012,0.001
05/06/2023,05:30:36,0.026,0.0,0.012,0.0
05/06/2023,05:31:36,0.025,0.0,0.012,0.0
05/06/2023,05:32:37,0.025,0.0,0.013,0.001
05/06/2023,05:33:36,0.026,0.0,0.013,0.0
05/06/2023,05:34:36,0.027,0.0,0.014,0.001
05/06/2023,05:35:36,0.027,0.0,0.014,0.0
05/06/2023,05:36:36,0.027,0.0,0.015,0.001
05/06/2023,05:37:36,0.028,0.0,0.015,0.0
05/06/2023,05:38:36,0.028,0.0,0.015,0.0
05/06/2023,05:39:36,0.029,0.0,0.016,0.001
05/06/2023,05:40:37,0.029,0.0,0.016,0.0
05/06/2023,05:41:36,0.029,0.0,0.017,0.001
05/06/2023,05:42:36,0.029,0.0,0.017,0.0
05/06/2023,05:43:36,0.030,0.0,0.018,0.001
05/06/2023,05:44:36,0.030,0.0,0.018,0.0
05/06/2023,05:45:36,0.030,0.0,0.019,0.001
05/06/2023,05:46:37,0.031,0.0,0.019,0.0
05/06/2023,05:47:37,0.033,0.0,0.02,0.001
05/06/2023,05:48:37,0.034,0.0,0.02,0.0
05/06/2023,05:49:37,0.033,0.0,0.021,0.001
05/06/2023,05:50:36,0.034,0.0,0.022,0.001
05/06/2023,05:51:36,0.034,0.0,0.022,0.0
05/06/2023,05:52:36,0.033,0.0,0.023,0.001
05/06/2023,05:53:36,0.034,0.0,0.023,0.0
05/06/2023,05:54:36,0.033,0.0,0.024,0.001
05/06/2023,05:55:36,0.036,0.0,0.024,0.0
05/06/2023,05:56:36,0.037,0.0,0.025,0.001
05/06/2023,05:57:37,0.039,0.0,0.026,0.001
05/06/2023,05:58:36,0.040,0.0,0.026,0.0
05/06/2023,05:59:36,0.041,0.0,0.027,0.001
05/06/2023,06:00:36,0.042,0.0,0.028,0.001
05/06/2023,06:01:36,0.043,0.0,0.028,0.0
05/06/2023,06:02:36,0.044,0.0,0.029,0.001
05/06/2023,06:03:36,0.045,0.0,0.03,0.001
05/06/2023,06:04:36,0.047,0.0,0.031,0.001
05/06/2023,06:05:36,0.049,0.0,0.031,0.0
05/06/2023,06:06:36,0.051,0.0,0.032,0.001
05/06/2023,06:07:36,0.050,0.0,0.033,0.001
05/06/2023,06:08:37,0.048,0.0,0.034,0.001
05/06/2023,06:09:36,0.049,0.0,0.035,0.001
05/06/2023,06:10:36,0.050,0.0,0.036,0.001
05/06/2023,06:11:37,0.051,0.0,0.036,0.0
05/06/2023,06:12:36,0.051,0.0,0.037,0.001
05/06/2023,06:13:37,0.052,0.0,0.038,0.001
05/06/2023,06:14:36,0.053,0.0,0.039,0.001
05/06/2023,06:15:36,0.054,0.0,0.04,0.001
05/06/2023,06:16:36,0.054,0.0,0.041,0.001
05/06/2023,06:17:37,0.056,0.0,0.042,0.001
05/06/2023,06:18:37,0.058,0.0,0.043,0.001
05/06/2023,06:19:36,0.061,0.0,0.044,0.001
05/06/2023,06:20:36,0.061,0.0,0.045,0.001
05/06/2023,06:21:37,0.064,0.0,0.046,0.001
05/06/2023,06:22:36,0.066,0.0,0.047,0.001
05/06/2023,06:23:37,0.066,0.0,0.048,0.001
05/06/2023,06:24:36,0.066,0.0,0.049,0.001
05/06/2023,06:25:37,0.066,0.0,0.05,0.001
05/06/2023,06:26:36,0.069,0.0,0.051,0.001
05/06/2023,06:27:36,0.073,0.0,0.052,0.001
05/06/2023,06:28:37,0.080,0.0,0.054,0.002
05/06/2023,06:29:36,0.085,0.0,0.055,0.001
05/06/2023,06:30:36,0.089,0.0,0.057,0.002
05/06/2023,06:31:36,0.086,0.0,0.058,0.001
05/06/2023,06:32:36,0.084,0.0,0.059,0.001
05/06/2023,06:33:37,0.085,0.0,0.061,0.002
05/06/2023,06:34:37,0.084,0.0,0.062,0.001
05/06/2023,06:35:36,0.084,0.0,0.064,0.002
05/06/2023,06:36:36,0.082,0.0,0.065,0.001
05/06/2023,06:37:37,0.082,0.0,0.066,0.001
05/06/2023,06:38:36,0.083,0.0,0.068,0.002
05/06/2023,06:39:37,0.082,0.0,0.069,0.001
05/06/2023,06:40:36,0.083,0.0,0.07,0.001
05/06/2023,06:41:36,0.084,0.0,0.072,0.002
05/06/2023,06:42:36,0.087,0.0,0.073,0.001
05/06/2023,06:43:36,0.095,0.0,0.075,0.002
05/06/2023,06:44:36,0.102,0.0,0.076,0.001
05/06/2023,06:45:37,0.101,0.0,0.078,0.002
05/06/2023,06:46:36,0.099,0.0,0.08,0.002
05/06/2023,06:47:36,0.100,0.0,0.081,0.001
05/06/2023,06:48:36,0.098,0.0,0.083,0.002
05/06/2023,06:49:36,0.096,0.0,0.085,0.002
05/06/2023,06:50:37,0.096,0.0,0.086,0.001
05/06/2023,06:51:36,0.099,0.0,0.088,0.002
05/06/2023,06:52:37,0.102,0.0,0.09,0.002
05/06/2023,06:53:37,0.103,0.0,0.091,0.001
05/06/2023,06:54:36,0.105,0.0,0.093,0.002
05/06/2023,06:55:37,0.101,0.0,0.095,0.002
05/06/2023,06:56:36,0.101,0.0,0.096,0.001
05/06/2023,06:57:36,0.099,0.0,0.098,0.002
05/06/2023,06:58:37,0.102,0.0,0.1,0.002
05/06/2023,06:59:37,0.105,0.0,0.102,0.002
05/06/2023,07:00:36,0.109,0.0,0.103,0.001
05/06/2023,07:01:36,0.118,0.0,0.105,0.002
05/06/2023,07:02:37,0.119,0.0,0.107,0.002
05/06/2023,07:03:36,0.117,0.0,0.109,0.002
05/06/2023,07:04:37,0.123,0.0,0.111,0.002
05/06/2023,07:05:36,0.127,0.0,0.113,0.002
05/06/2023,07:06:37,0.124,0.0,0.115,0.002
05/06/2023,07:07:37,0.122,0.0,0.117,0.002
05/06/2023,07:08:36,0.123,0.0,0.119,0.002
05/06/2023,07:09:37,0.123,0.0,0.121,0.002
05/06/2023,07:10:36,0.132,0.0,0.124,0.003
05/06/2023,07:11:37,0.141,0.0,0.126,0.002
05/06/2023,07:12:36,0.152,0.0,0.128,0.002
05/06/2023,07:13:37,0.153,0.0,0.131,0.003
05/06/2023,07:14:36,0.153,0.0,0.133,0.002
05/06/2023,07:15:37,0.151,0.0,0.136,0.003
05/06/2023,07:16:36,0.148,0.0,0.138,0.002
05/06/2023,07:17:37,0.151,0.0,0.141,0.003
05/06/2023,07:18:36,0.155,0.0,0.143,0.002
05/06/2023,07:19:36,0.154,0.0,0.146,0.003
05/06/2023,07:20:37,0.154,0.0,0.149,0.003
05/06/2023,07:21:37,0.155,0.0,0.151,0.002
05/06/2023,07:22:36,0.156,0.0,0.154,0.003
05/06/2023,07:23:36,0.158,0.0,0.156,0.002
05/06/2023,07:24:36,0.162,0.0,0.159,0.003
05/06/2023,07:25:36,0.165,0.0,0.162,0.003
05/06/2023,07:26:37,0.165,0.0,0.165,0.003
05/06/2023,07:27:36,0.166,0.0,0.167,0.002
05/06/2023,07:28:37,0.170,0.0,0.17,0.003
05/06/2023,07:29:37,0.173,0.0,0.173,0.003
05/06/2023,07:30:36,0.172,0.0,0.176,0.003
05/06/2023,07:31:36,0.175,0.0,0.179,0.003
05/06/2023,07:32:37,0.176,0.0,0.182,0.003
05/06/2023,07:33:36,0.178,0.0,0.185,0.003
05/06/2023,07:34:37,0.177,0.0,0.187,0.002
05/06/2023,07:35:37,0.180,0.0,0.19,0.003
05/06/2023,07:36:36,0.183,0.0,0.193,0.003
05/06/2023,07:37:36,0.184,0.0,0.197,0.004
05/06/2023,07:38:36,0.185,0.0,0.2,0.003
05/06/2023,07:39:36,0.185,0.0,0.203,0.003
05/06/2023,07:40:37,0.186,0.0,0.206,0.003
05/06/2023,07:41:37,0.189,0.0,0.209,0.003
05/06/2023,07:42:37,0.194,0.0,0.212,0.003
05/06/2023,07:43:36,0.201,0.0,0.215,0.003
05/06/2023,07:44:37,0.202,0.0,0.219,0.004
05/06/2023,07:45:36,0.202,0.0,0.222,0.003
05/06/2023,07:46:36,0.206,0.0,0.226,0.004
05/06/2023,07:47:36,0.205,0.0,0.229,0.003
05/06/2023,07:48:37,0.207,0.0,0.232,0.003
05/06/2023,07:49:36,0.211,0.0,0.236,0.004
05/06/2023,07:50:36,0.213,0.0,0.239,0.003
05/06/2023,07:51:36,0.209,0.0,0.243,0.004
05/06/2023,07:52:37,0.207,0.0,0.246,0.003
05/06/2023,07:53:36,0.205,0.0,0.25,0.004
05/06/2023,07:54:36,0.205,0.0,0.253,0.003
05/06/2023,07:55:36,0.207,0.0,0.257,0.004
05/06/2023,07:56:36,0.211,0.0,0.26,0.003
05/06/2023,07:57:37,0.213,0.0,0.264,0.004
05/06/2023,07:58:37,0.212,0.0,0.267,0.003
05/06/2023,07:59:36,0.213,0.0,0.271,0.004
05/06/2023,08:00:37,0.215,0.0,0.274,0.003
05/06/2023,08:01:36,0.216,0.0,0.278,0.004
05/06/2023,08:02:36,0.215,0.0,0.282,0.004
05/06/2023,08:03:37,0.216,0.0,0.285,0.003
05/06/2023,08:04:36,0.221,1.0,0.289,0.004
05/06/2023,08:05:37,0.226,1.0,0.293,0.004
05/06/2023,08:06:37,0.230,1.0,0.296,0.003
05/06/2023,08:07:36,0.235,1.0,0.3,0.004
05/06/2023,08:08:37,0.242,1.0,0.304,0.004
05/06/2023,08:09:36,0.250,1.0,0.308,0.004
05/06/2023,08:10:37,0.260,1.0,0.313,0.005
05/06/2023,08:11:37,0.270,1.0,0.317,0.004
05/06/2023,08:12:36,0.280,1.0,0.322,0.005
05/06/2023,08:13:37,0.292,1.0,0.326,0.004
05/06/2023,08:14:36,0.300,1.0,0.331,0.005
05/06/2023,08:15:36,0.309,1.0,0.336,0.005
05/06/2023,08:16:37,0.325,1.0,0.342,0.006
05/06/2023,08:17:37,0.335,1.0,0.347,0.005
05/06/2023,08:18:36,0.337,1.0,0.353,0.006
05/06/2023,08:19:37,0.335,1.0,0.358,0.005
05/06/2023,08:20:36,0.333,1.0,0.364,0.006
05/06/2023,08:21:59,0.329,1.0,0.371,0.007
05/06/2023,08:23:37,0.333,1.0,0.381,0.01
05/06/2023,08:24:36,0.337,1.0,0.386,0.005
05/06/2023,08:25:36,0.343,1.0,0.392,0.006
05/06/2023,08:26:37,0.356,1.0,0.398,0.006
05/06/2023,08:27:36,0.357,1.0,0.404,0.006
05/06/2023,08:28:37,0.350,1.0,0.409,0.005
05/06/2023,08:29:36,0.351,1.0,0.415,0.006
05/06/2023,08:30:36,0.356,1.0,0.421,0.006
05/06/2023,08:31:36,0.358,1.0,0.427,0.006
05/06/2023,08:32:36,0.359,1.0,0.433,0.006
05/06/2023,08:33:37,0.361,1.0,0.439,0.006
05/06/2023,08:34:37,0.367,1.0,0.445,0.006
05/06/2023,08:35:36,0.373,1.0,0.451,0.006
05/06/2023,08:36:37,0.380,1.0,0.458,0.007
05/06/2023,08:37:37,0.378,1.0,0.464,0.006
05/06/2023,08:38:36,0.371,1.0,0.47,0.006
05/06/2023,08:39:36,0.366,1.0,0.476,0.006
05/06/2023,08:40:36,0.353,1.0,0.482,0.006
05/06/2023,08:41:37,0.346,1.0,0.488,0.006
05/06/2023,08:42:37,0.343,1.0,0.494,0.006
05/06/2023,08:43:36,0.346,1.0,0.5,0.006
05/06/2023,08:44:36,0.355,1.0,0.505,0.005
05/06/2023,08:45:37,0.366,1.0,0.511,0.006
05/06/2023,08:46:37,0.375,1.0,0.518,0.007
05/06/2023,08:47:36,0.383,1.0,0.524,0.006
05/06/2023,08:48:37,0.379,1.0,0.53,0.006
05/06/2023,08:49:37,0.372,1.0,0.537,0.007
05/06/2023,08:50:37,0.375,1.0,0.543,0.006
05/06/2023,08:51:36,0.385,1.0,0.549,0.006
05/06/2023,08:52:36,0.396,1.0,0.556,0.007
05/06/2023,08:53:36,0.403,1.0,0.562,0.006
05/06/2023,08:54:36,0.406,1.0,0.569,0.007
05/06/2023,08:55:37,0.415,1.0,0.576,0.007
05/06/2023,08:56:37,0.425,1.0,0.583,0.007
05/06/2023,08:57:36,0.430,1.0,0.59,0.007
05/06/2023,08:58:37,0.429,1.0,0.597,0.007
05/06/2023,08:59:36,0.432,1.0,0.604,0.007
05/06/2023,09:00:36,0.434,1.0,0.611,0.007
05/06/2023,09:01:37,0.439,1.0,0.619,0.008
05/06/2023,09:02:36,0.439,1.0,0.626,0.007
05/06/2023,09:03:36,0.431,1.0,0.633,0.007
05/06/2023,09:04:36,0.423,1.0,0.64,0.007
05/06/2023,09:05:37,0.412,1.0,0.647,0.007
05/06/2023,09:06:37,0.410,1.0,0.654,0.007
05/06/2023,09:07:36,0.417,1.0,0.661,0.007
05/06/2023,09:08:37,0.443,1.0,0.668,0.007
05/06/2023,09:09:36,0.479,1.0,0.676,0.008
05/06/2023,09:10:36,0.506,1.0,0.684,0.008
05/06/2023,09:11:37,0.518,1.0,0.693,0.009
05/06/2023,09:12:36,0.522,1.0,0.701,0.008
05/06/2023,09:13:37,0.517,1.0,0.71,0.009
05/06/2023,09:14:36,0.532,1.0,0.719,0.009
05/06/2023,09:15:40,0.538,1.0,0.728,0.009
05/06/2023,09:16:37,0.534,1.0,0.737,0.009
05/06/2023,09:17:37,0.546,1.0,0.746,0.009
05/06/2023,09:18:37,0.546,1.0,0.755,0.009
05/06/2023,09:19:36,0.535,1.0,0.764,0.009
05/06/2023,09:20:37,0.521,1.0,0.773,0.009
05/06/2023,09:21:36,0.517,1.0,0.781,0.008
05/06/2023,09:22:37,0.523,1.0,0.79,0.009
05/06/2023,09:23:36,0.526,1.0,0.799,0.009
05/06/2023,09:24:37,0.525,1.0,0.807,0.008
05/06/2023,09:25:37,0.526,1.0,0.816,0.009
05/06/2023,09:26:37,0.530,1.0,0.825,0.009
05/06/2023,09:27:36,0.545,1.0,0.834,0.009
05/06/2023,09:28:36,0.563,1.0,0.843,0.009
05/06/2023,09:29:37,0.572,1.0,0.853,0.01
05/06/2023,09:30:36,0.573,1.0,0.862,0.009
05/06/2023,09:31:37,0.579,1.0,0.872,0.01
05/06/2023,09:32:36,0.588,1.0,0.881,0.009
05/06/2023,09:33:37,0.595,1.0,0.891,0.01
05/06/2023,09:34:36,0.603,1.0,0.901,0.01
05/06/2023,09:35:37,0.612,1.0,0.911,0.01
05/06/2023,09:36:37,0.618,1.0,0.922,0.011
05/06/2023,09:37:36,0.620,1.0,0.932,0.01
05/06/2023,09:38:37,0.625,1.0,0.942,0.01
05/06/2023,09:39:37,0.633,1.0,0.953,0.011
05/06/2023,09:40:36,0.648,1.0,0.964,0.011
05/06/2023,09:41:36,0.663,2.0,0.974,0.01
05/06/2023,09:42:37,0.659,2.0,0.986,0.012
05/06/2023,09:43:37,0.644,1.0,0.996,0.01
05/06/2023,09:44:36,0.620,1.0,1.007,0.011
05/06/2023,09:45:37,0.600,1.0,1.017,0.01
05/06/2023,09:46:36,0.586,1.0,1.027,0.01
05/06/2023,09:47:36,0.583,1.0,1.037,0.01
05/06/2023,09:48:37,0.590,1.0,1.046,0.009
05/06/2023,09:49:37,0.586,1.0,1.056,0.01
05/06/2023,09:50:36,0.574,1.0,1.066,0.01
05/06/2023,09:51:36,0.574,1.0,1.075,0.009
05/06/2023,09:52:36,0.596,1.0,1.085,0.01
05/06/2023,09:53:37,0.609,1.0,1.095,0.01
05/06/2023,09:54:37,0.604,1.0,1.105,0.01
05/06/2023,09:55:37,0.593,1.0,1.115,0.01
05/06/2023,09:56:36,0.590,1.0,1.125,0.01
05/06/2023,09:57:37,0.583,1.0,1.135,0.01
05/06/2023,09:58:37,0.577,1.0,1.145,0.01
05/06/2023,09:59:37,0.585,1.0,1.154,0.009
05/06/2023,10:00:36,0.607,1.0,1.164,0.01
05/06/2023,10:01:37,0.638,1.0,1.175,0.011